SCP
0 0 0 0 0 0 0 0 0 0 0 0 0 0 0 0 0 0 0 0 0 0 0 0 0 0 0 0 0 0 0 0 0 0 0 0 0 0 0 0 0 0 0 0
0 0 0 0 0 0 0 0 0 0 0 0 0 0 0 0 0 0 0 0 0 0 0 0 0 0 0 0 0 0 0 0 0 0 0 0 0 0 0 0 0 0 0 0
0 0 0 0 0 0 0 0 0 0 0 0 0 0 0 0 0 0 0 0 0 0 0 0 0 0 0 0 0 0 0 0 0 0 0 0 0 0 0 0 0 0 0 0
0 0 0 0 0 0 0 0 0 0 0 0 0 0 0 0 0 0 0 0 0 0 0 0 0 0 0 0 0 0 0 0 0 0 0 0 0 0 0 0 0 0 0 0
0 0 0 0 0 0 0 0 0 0 0 0 0 0 0 0 0 0 0 0 0 0 0 0 0 0 0 0 0 0 0 0 0 0 0 0 0 0 0 0 0 0 0 0
0 0 0 0 0 0 0 0 0 0 0 0 0 0 0 0 0 0 0 0 0 0 0 0 0 0 0 0 0 0 0 0 0 0 0 0 0 0 0 0 0 0 0 0
0 0 0 0 0 0 0 0 0 0 0 0 0 0 0 0 0 0 0 0 0 0 0 0 0 0 0 0 0 0 0 0 0 0 0 0 0 0 0 0 0 0 0 0
0 0 0 0 0 0 0 0 0 0 0 0 0 0 0 0 0 0 0 0 0 0 0 0 0 0 0 0 0 0 0 0 0 0 0 0 0 0 0 0 0 0 0 0
0 0 0 0 0 0 0 0 0 0 0 0 0 0 0 0 0 0 0 0 0 0 0 0 0 0 0 0 0 0 0 0 0 0 0 0 0 0 0 0 0 0 0 0
0 0 0 0 0 0 0 0 0 0 0 0 0 0 0 0 0 0 0 0 0 0 0 0 0 0 0 0 0 0 0 0 0 0 0 0 0 0 0 0 0 0 0 0
0 0 0 0 0 0 0 0 0 0 0 0 0 0 0 0 0 0 0 0 0 0 0 0 0 0 0 0 0 0 0 0 0 0 0 0 0 0 0 0 0 0 0 0
0 0 0 0 0 0 0 0 0 0 0 0 0 0 0 0 0 0 0 0 0 0 0 0 0 0 0 0 0 0 0 0 0 0 0 0 0 0 0 0 0 0 0 0
0 0 0 0 0 0 0 0 0 0 0 0 0 0 0 0 0 0 0 0 0 0 0 0 0 0 0 0 0 0 0 0 0 0 0 0 0 0 0 0 0 0 0 0
0 0 0 0 0 0 0 0 0 0 0 0 0 0 0 0 0 0 0 0 0 0 0 0 0 0 0 0 0 0 0 0 0 0 0 0 0 0 0 0 0 0 0 0
0 0 0 0 0 0 0 0 0 0 0 0 0 0 0 0 0 0 0 0 0 0 0 0 0 0 0 0 0 0 0 0 0 0 0 0 0 0 0 0 0 0 0 0
0 0 0 0 0 0 0 0 0 0 0 0 0 0 0 0 0 0 0 0 0 0 0 0 0 0 0 0 0 0 0 0 0 0 0 0 0 0 0 0 0 0 0 0
0 0 0 0 0 0 0 0 0 0 0 0 0 0 0 0 0 0 0 0 0 0 0 0 0 0 0 0 0 0 0 0 0 0 0 0 0 0 0 0 0 0 0 0
0 0 0 0 0 0 0 0 0 0 0 0 0 0 0 0 0 0 0 0 0 0 0 0 0 0 0 0 0 0 0 0 0 0 0 0 0 0 0 0 0 0 0 0
0 0 0 0 0 0 0 0 0 0 0 0 0 0 0 0 0 0 0 0 0 0 0 0 0 0 0 0 0 0 0 0 0 0 0 0 0 0 0 0 0 0 0 0
0 0 0 0 0 0 0 0 0 0 0 0 0 0 0 0 0 0 0 0 0 0 0 0 0 0 0 0 0 0 0 0 0 0 0 0 0 0 0 0 0 0 0 0
0 0 0 0 0 0 0 0 0 0 0 0 0 0 0 0 0 0 0 0 0 0 0 0 0 0 0 0 0 0 0 0 0 0 0 0 0 0 0 0 0 0 0 0
0 0 0 0 0 0 0 0 0 0 0 0 0 0 0 0 0 0 0 0 0 0 0 0 0 0 0 0 0 0 0 0 0 0 0 0 0 0 0 0 0 0 0 0
0 0 0 0 0 0 0 0 0 0 0 0 0 0 0 0 0 0 0 0 0 0 0 0 0 0 0 0 0 0 0 0 0 0 0 0 0 0 0 0 0 0 0 0
0 0 0 0 0 0 0 0 0 0 0 0 0 0 0 0 0 0 0 0 0 0 0 0 0 0 0 0 0 0 0 0 0 0 0 0 0 0 0 0 0 0 0 0
0 0 0 0 0 0 0 0 0 0 0 0 0 0 0 0 0 0 0 0 0 0 0 0 0 0 0 0 0 0 0 0 0 0 0 0 -0 0 0 0 0 0 0 0
0 0 0 0 0 0 0 0 0 0 0 0 0 0 0 0 0 0 0 0 0 0 0 0 0 0 0 0 0 0 0 0 0 0 0 -0 -0 0 0 0 0 0 0 0
0 0 0 0 0 0 0 0 0 0 0 0 0 0 0 0 0 0 0 0 0 0 0 0 0 0 0 0 0 0 0 0 0 0 0 -0 -0 0 0 0 0 0 0 0
Wind_Speed_500mb
7 6 9 13 14 21 23 26 21 22 27 15 25 23 45 44 34 40 48 52 52 52 50 49 50 52 55 54 49 45 44 42 38 36 35 31 28 27 31 36 41 47 54 57
8 5 4 8 18 22 30 21 21 22 30 13 31 29 27 34 38 42 45 40 36 36 40 43 43 47 54 57 52 50 48 45 44 46 45 41 38 36 37 40 47 53 58 60
12 6 8 16 30 32 16 13 23 24 34 10 11 20 34 41 43 45 36 36 33 29 28 33 37 41 46 47 47 52 49 49 52 55 54 50 48 45 43 47 53 58 62 62
7 7 15 3 3 13 31 17 12 3 9 21 18 32 28 30 30 29 29 26 27 30 34 35 34 35 31 37 45 50 52 56 61 63 60 58 54 50 50 52 57 64 65 64
11 12 12 7 11 17 16 18 20 25 14 18 20 13 15 22 20 22 23 24 28 31 32 30 29 28 30 33 37 47 56 61 63 64 64 61 58 54 53 54 62 66 65 64
6 10 19 5 4 16 10 13 17 34 18 23 29 5 8 26 24 22 25 30 32 32 31 29 24 22 27 35 40 45 46 46 49 57 60 60 57 54 53 56 66 68 66 67
9 8 11 10 13 24 12 11 21 41 25 46 11 16 20 15 15 16 24 29 29 33 34 27 25 30 34 35 36 37 42 47 50 54 56 57 55 53 55 63 66 68 67 67
4 3 17 27 11 16 10 13 25 30 35 43 34 27 18 14 17 25 32 33 32 41 43 32 31 36 38 42 38 39 46 49 52 55 55 55 54 55 60 66 68 67 67 68
18 11 3 56 8 24 27 34 35 34 37 38 41 32 22 21 24 28 36 30 32 45 51 42 40 42 45 48 48 47 49 51 53 54 55 55 57 60 63 67 68 66 67 67
8 9 9 49 24 28 30 30 26 23 33 46 44 35 28 24 24 27 36 37 30 40 58 59 54 50 51 54 53 52 54 56 54 53 56 58 60 62 66 66 63 63 64 63
1 2 5 23 52 37 39 35 32 34 39 45 45 44 35 31 33 35 35 42 42 44 50 58 57 52 52 53 52 54 56 56 55 53 55 57 59 60 63 60 60 62 59 58
8 27 17 16 37 40 48 49 44 41 42 44 45 44 40 44 39 35 38 37 44 48 53 56 47 46 50 54 54 55 58 56 54 56 58 60 62 62 56 56 57 57 51 51
11 18 29 19 16 30 47 48 45 45 44 45 45 45 43 51 48 44 44 45 47 46 45 44 46 49 53 54 56 55 56 55 56 58 60 60 61 59 57 49 51 50 47 49
28 25 26 37 29 32 38 45 46 44 46 48 47 48 52 54 51 49 47 44 45 44 44 46 47 47 49 49 49 49 51 54 57 59 60 61 58 55 55 57 58 43 39 46
43 41 44 45 45 48 43 41 43 46 48 49 53 50 51 52 50 47 49 49 46 44 44 42 39 41 42 42 45 49 52 55 57 58 59 58 56 56 54 54 55 52 41 34
45 45 47 51 56 56 55 53 50 53 52 52 55 53 50 51 52 55 53 48 45 41 37 35 34 39 42 44 47 49 51 52 55 56 58 59 57 57 54 52 51 48 44 37
41 43 50 52 52 50 50 48 48 45 43 47 50 48 49 56 56 52 46 41 38 34 31 31 34 39 42 44 46 47 50 52 56 59 59 57 57 56 54 52 49 45 41 36
55 56 56 55 57 56 52 44 36 36 43 49 47 44 44 45 43 38 34 31 29 28 29 30 33 37 40 43 46 48 51 53 55 58 56 55 54 54 53 52 48 44 39 35
46 50 50 49 46 46 44 39 33 34 38 41 40 38 35 33 30 28 25 24 25 26 27 30 32 34 37 41 46 48 50 51 52 52 52 53 54 51 50 49 47 43 40 39
30 32 32 29 28 28 27 24 24 25 26 24 22 21 21 21 19 17 17 21 19 20 22 27 32 37 40 42 47 47 48 49 49 48 46 47 48 47 46 46 45 43 41 40
14 13 15 15 15 14 14 12 12 14 15 15 14 15 15 14 14 12 13 16 17 20 25 28 32 35 35 33 32 34 37 38 39 39 40 41 42 42 43 43 43 43 42 41
4 2 4 7 9 11 14 15 16 17 18 17 15 13 10 9 10 11 13 14 16 20 23 23 22 19 18 19 21 25 27 28 29 30 32 35 38 39 39 40 40 40 40 41
8 9 8 11 10 13 18 18 18 16 15 15 14 13 10 8 9 9 11 13 15 15 14 14 12 14 16 19 22 24 26 27 28 30 34 35 36 37 37 37 37 38 39 39
12 14 16 19 20 19 18 20 18 16 13 10 7 4 4 6 8 10 10 10 9 10 11 12 15 18 20 22 24 25 27 31 32 33 34 34 34 33 34 35 35 34 36 38
13 15 18 19 17 18 18 16 13 11 8 5 3 4 6 7 9 9 9 8 10 11 13 15 17 20 22 23 25 25 27 30 31 32 32 32 32 32 32 33 34 37 38 39
17 16 17 18 17 16 14 11 8 6 3 2 4 5 6 8 8 8 9 10 12 13 15 16 18 19 21 23 26 26 29 31 31 32 33 33 34 34 35 35 36 36 37 37
14 14 13 12 11 9 7 6 4 3 2 3 3 4 5 6 7 9 10 11 12 13 14 15 16 17 20 22 25 25 27 29 30 31 30 31 32 32 33 34 34 34 35 35
Wind_Direction_500mb
229 150 172 183 169 180 197 215 213 246 234 182 202 199 206 206 200 205 211 217 221 228 233 240 245 247 245 241 236 235 234 236 242 244 250 256 272 289 300 310 316 320 319 317
193 156 195 246 214 187 203 216 240 254 255 191 221 206 186 196 196 211 221 227 222 241 247 248 249 251 247 240 236 233 236 244 245 248 252 259 268 276 287 300 308 313 315 313
209 109 110 267 218 191 195 195 196 221 244 163 210 207 216 230 228 231 234 231 241 235 239 248 256 260 254 242 236 236 242 246 248 251 254 260 265 272 282 291 301 308 310 309
133 145 217 238 39 187 205 215 182 121 203 189 205 222 233 225 226 228 231 220 224 237 242 245 247 246 235 230 236 241 249 253 254 254 256 259 263 270 279 290 302 305 306 306
163 204 336 172 195 158 163 246 183 206 202 183 160 149 236 218 203 197 212 224 232 231 234 233 230 228 229 234 243 251 257 260 261 259 258 259 263 271 282 293 302 302 303 305
142 188 205 260 164 145 107 272 218 197 195 153 144 148 234 182 191 215 225 223 227 232 228 220 217 230 254 265 267 268 270 273 266 259 259 260 266 274 284 297 300 301 301 305
175 217 277 211 186 150 139 248 183 199 180 162 184 199 144 179 215 231 231 228 233 233 224 217 253 272 266 269 273 282 274 270 267 262 261 263 268 277 288 298 297 297 298 302
120 212 260 158 108 167 187 147 156 171 187 196 199 175 200 225 235 234 231 228 234 232 224 242 276 275 265 264 275 279 275 270 266 263 263 266 272 282 292 294 296 296 296 299
191 204 5 172 139 185 168 162 168 176 189 198 190 207 215 228 230 240 236 231 245 245 236 252 271 270 268 268 270 278 274 266 265 265 266 269 275 284 291 293 293 293 295 298
117 196 196 198 204 188 189 183 184 206 211 202 211 223 232 236 237 244 238 236 251 251 245 252 265 269 268 266 265 277 274 264 264 266 269 273 278 285 289 289 289 290 293 297
43 242 216 233 218 207 204 212 219 221 223 222 225 232 243 263 269 257 249 246 253 253 252 258 263 263 266 263 267 277 269 263 263 267 270 273 278 283 286 286 286 288 291 293
207 195 178 212 222 228 225 223 236 240 235 235 237 248 260 266 268 256 247 250 247 252 259 263 255 258 260 260 264 267 266 264 267 272 275 279 282 284 282 283 286 288 291 292
195 198 207 219 234 238 235 233 245 250 251 249 247 254 255 260 260 257 253 251 256 264 262 254 253 254 256 260 262 265 266 267 270 273 276 278 281 281 282 277 279 283 287 289
220 219 212 230 239 247 246 255 261 260 261 254 255 255 258 257 257 253 252 261 260 259 255 253 255 257 256 257 259 264 266 268 271 274 275 277 278 279 280 282 286 281 282 288
239 241 253 265 269 265 267 266 268 265 266 254 254 258 257 252 253 254 257 261 260 257 257 256 254 254 256 258 263 266 268 271 274 273 275 274 274 274 275 277 281 287 289 281
256 257 265 260 265 270 270 268 263 266 264 264 261 263 259 255 255 254 256 256 255 254 251 250 252 259 265 270 272 273 274 273 270 270 270 270 270 271 271 273 276 281 285 287
256 255 258 259 263 271 273 275 273 271 270 270 273 264 254 248 247 249 251 248 247 248 250 254 261 268 273 276 277 277 275 273 273 272 270 271 269 268 270 271 272 275 278 280
272 274 275 279 280 283 281 280 272 264 260 264 263 260 253 248 247 246 243 242 247 254 262 270 275 279 282 283 281 279 276 273 271 270 268 265 266 266 267 268 270 272 274 275
274 274 274 272 271 270 272 270 259 251 250 253 254 252 243 236 234 232 233 241 248 259 271 279 284 286 286 286 285 284 284 281 278 275 272 270 269 268 266 266 267 268 272 276
273 275 273 270 263 257 257 253 244 238 236 234 229 222 217 211 210 214 229 244 258 272 280 283 286 289 290 289 290 291 289 287 285 281 274 269 267 265 262 263 266 269 272 275
269 273 267 259 251 240 229 217 212 201 193 188 189 187 190 198 207 217 236 254 268 277 285 290 292 293 295 297 298 298 300 299 294 287 280 274 270 267 267 267 267 270 273 276
293 256 234 210 194 179 168 165 161 160 161 161 161 161 170 188 215 231 248 272 286 288 290 294 299 300 304 312 319 319 315 311 304 294 288 284 279 276 273 270 270 272 275 277
84 99 118 122 129 138 140 138 139 140 149 150 151 157 172 208 238 260 271 277 284 291 291 301 303 304 313 319 314 310 307 305 302 298 294 291 287 283 280 278 277 276 277 279
101 116 128 131 132 134 142 138 137 141 142 141 150 174 213 246 260 277 284 283 285 289 296 303 309 310 312 307 306 306 305 303 301 299 297 294 291 288 285 283 281 280 281 281
106 117 124 124 130 131 130 129 131 138 145 156 188 232 261 276 277 278 276 282 285 291 300 307 309 308 309 310 308 309 308 305 304 301 300 298 295 292 289 287 287 285 285 286
118 125 128 130 130 132 134 140 155 156 169 232 264 277 279 282 282 277 280 288 296 307 311 312 312 313 313 315 312 312 310 309 306 304 301 300 297 295 292 290 288 288 288 288
116 117 119 122 125 130 133 142 149 157 203 235 256 284 285 286 293 302 309 317 320 320 319 320 321 321 323 322 317 318 317 314 313 310 307 303 300 299 297 295 294 293 292 294
Wind_Speed_850mb
7 6 9 13 14 21 23 26 21 22 27 15 25 23 45 44 34 40 48 52 52 52 50 49 50 52 55 54 49 45 44 42 38 36 35 31 28 27 31 36 41 47 54 57
8 5 4 8 18 22 30 21 21 22 30 13 31 29 27 34 38 42 45 40 36 36 40 43 43 47 54 57 52 50 48 45 44 46 45 41 38 36 37 40 47 53 58 60
12 6 8 16 30 32 16 13 23 24 34 10 11 20 34 41 43 45 36 36 33 29 28 33 37 41 46 47 47 52 49 49 52 55 54 50 48 45 43 47 53 58 62 62
7 7 15 3 3 13 31 17 12 3 9 21 18 32 28 30 30 29 29 26 27 30 34 35 34 35 31 37 45 50 52 56 61 63 60 58 54 50 50 52 57 64 65 64
11 12 12 7 11 17 16 18 20 25 14 18 20 13 15 22 20 22 23 24 28 31 32 30 29 28 30 33 37 47 56 61 63 64 64 61 58 54 53 54 62 66 65 64
6 10 19 5 4 16 10 13 17 34 18 23 29 5 8 26 24 22 25 30 32 32 31 29 24 22 27 35 40 45 46 46 49 57 60 60 57 54 53 56 66 68 66 67
9 8 11 10 13 24 12 11 21 41 25 46 11 16 20 15 15 16 24 29 29 33 34 27 25 30 34 35 36 37 42 47 50 54 56 57 55 53 55 63 66 68 67 67
4 3 17 27 11 16 10 13 25 30 35 43 34 27 18 14 17 25 32 33 32 41 43 32 31 36 38 42 38 39 46 49 52 55 55 55 54 55 60 66 68 67 67 68
18 11 3 56 8 24 27 34 35 34 37 38 41 32 22 21 24 28 36 30 32 45 51 42 40 42 45 48 48 47 49 51 53 54 55 55 57 60 63 67 68 66 67 67
8 9 9 49 24 28 30 30 26 23 33 46 44 35 28 24 24 27 36 37 30 40 58 59 54 50 51 54 53 52 54 56 54 53 56 58 60 62 66 66 63 63 64 63
1 2 5 23 52 37 39 35 32 34 39 45 45 44 35 31 33 35 35 42 42 44 50 58 57 52 52 53 52 54 56 56 55 53 55 57 59 60 63 60 60 62 59 58
8 27 17 16 37 40 48 49 44 41 42 44 45 44 40 44 39 35 38 37 44 48 53 56 47 46 50 54 54 55 58 56 54 56 58 60 62 62 56 56 57 57 51 51
11 18 29 19 16 30 47 48 45 45 44 45 45 45 43 51 48 44 44 45 47 46 45 44 46 49 53 54 56 55 56 55 56 58 60 60 61 59 57 49 51 50 47 49
28 25 26 37 29 32 38 45 46 44 46 48 47 48 52 54 51 49 47 44 45 44 44 46 47 47 49 49 49 49 51 54 57 59 60 61 58 55 55 57 58 43 39 46
43 41 44 45 45 48 43 41 43 46 48 49 53 50 51 52 50 47 49 49 46 44 44 42 39 41 42 42 45 49 52 55 57 58 59 58 56 56 54 54 55 52 41 34
45 45 47 51 56 56 55 53 50 53 52 52 55 53 50 51 52 55 53 48 45 41 37 35 34 39 42 44 47 49 51 52 55 56 58 59 57 57 54 52 51 48 44 37
41 43 50 52 52 50 50 48 48 45 43 47 50 48 49 56 56 52 46 41 38 34 31 31 34 39 42 44 46 47 50 52 56 59 59 57 57 56 54 52 49 45 41 36
55 56 56 55 57 56 52 44 36 36 43 49 47 44 44 45 43 38 34 31 29 28 29 30 33 37 40 43 46 48 51 53 55 58 56 55 54 54 53 52 48 44 39 35
46 50 50 49 46 46 44 39 33 34 38 41 40 38 35 33 30 28 25 24 25 26 27 30 32 34 37 41 46 48 50 51 52 52 52 53 54 51 50 49 47 43 40 39
30 32 32 29 28 28 27 24 24 25 26 24 22 21 21 21 19 17 17 21 19 20 22 27 32 37 40 42 47 47 48 49 49 48 46 47 48 47 46 46 45 43 41 40
14 13 15 15 15 14 14 12 12 14 15 15 14 15 15 14 14 12 13 16 17 20 25 28 32 35 35 33 32 34 37 38 39 39 40 41 42 42 43 43 43 43 42 41
4 2 4 7 9 11 14 15 16 17 18 17 15 13 10 9 10 11 13 14 16 20 23 23 22 19 18 19 21 25 27 28 29 30 32 35 38 39 39 40 40 40 40 41
8 9 8 11 10 13 18 18 18 16 15 15 14 13 10 8 9 9 11 13 15 15 14 14 12 14 16 19 22 24 26 27 28 30 34 35 36 37 37 37 37 38 39 39
12 14 16 19 20 19 18 20 18 16 13 10 7 4 4 6 8 10 10 10 9 10 11 12 15 18 20 22 24 25 27 31 32 33 34 34 34 33 34 35 35 34 36 38
13 15 18 19 17 18 18 16 13 11 8 5 3 4 6 7 9 9 9 8 10 11 13 15 17 20 22 23 25 25 27 30 31 32 32 32 32 32 32 33 34 37 38 39
17 16 17 18 17 16 14 11 8 6 3 2 4 5 6 8 8 8 9 10 12 13 15 16 18 19 21 23 26 26 29 31 31 32 33 33 34 34 35 35 36 36 37 37
14 14 13 12 11 9 7 6 4 3 2 3 3 4 5 6 7 9 10 11 12 13 14 15 16 17 20 22 25 25 27 29 30 31 30 31 32 32 33 34 34 34 35 35
Wind_Direction_850mb
229 150 172 183 169 180 197 215 213 246 234 182 202 199 206 206 200 205 211 217 221 228 233 240 245 247 245 241 236 235 234 236 242 244 250 256 272 289 300 310 316 320 319 317
193 156 195 246 214 187 203 216 240 254 255 191 221 206 186 196 196 211 221 227 222 241 247 248 249 251 247 240 236 233 236 244 245 248 252 259 268 276 287 300 308 313 315 313
209 109 110 267 218 191 195 195 196 221 244 163 210 207 216 230 228 231 234 231 241 235 239 248 256 260 254 242 236 236 242 246 248 251 254 260 265 272 282 291 301 308 310 309
133 145 217 238 39 187 205 215 182 121 203 189 205 222 233 225 226 228 231 220 224 237 242 245 247 246 235 230 236 241 249 253 254 254 256 259 263 270 279 290 302 305 306 306
163 204 336 172 195 158 163 246 183 206 202 183 160 149 236 218 203 197 212 224 232 231 234 233 230 228 229 234 243 251 257 260 261 259 258 259 263 271 282 293 302 302 303 305
142 188 205 260 164 145 107 272 218 197 195 153 144 148 234 182 191 215 225 223 227 232 228 220 217 230 254 265 267 268 270 273 266 259 259 260 266 274 284 297 300 301 301 305
175 217 277 211 186 150 139 248 183 199 180 162 184 199 144 179 215 231 231 228 233 233 224 217 253 272 266 269 273 282 274 270 267 262 261 263 268 277 288 298 297 297 298 302
120 212 260 158 108 167 187 147 156 171 187 196 199 175 200 225 235 234 231 228 234 232 224 242 276 275 265 264 275 279 275 270 266 263 263 266 272 282 292 294 296 296 296 299
191 204 5 172 139 185 168 162 168 176 189 198 190 207 215 228 230 240 236 231 245 245 236 252 271 270 268 268 270 278 274 266 265 265 266 269 275 284 291 293 293 293 295 298
117 196 196 198 204 188 189 183 184 206 211 202 211 223 232 236 237 244 238 236 251 251 245 252 265 269 268 266 265 277 274 264 264 266 269 273 278 285 289 289 289 290 293 297
43 242 216 233 218 207 204 212 219 221 223 222 225 232 243 263 269 257 249 246 253 253 252 258 263 263 266 263 267 277 269 263 263 267 270 273 278 283 286 286 286 288 291 293
207 195 178 212 222 228 225 223 236 240 235 235 237 248 260 266 268 256 247 250 247 252 259 263 255 258 260 260 264 267 266 264 267 272 275 279 282 284 282 283 286 288 291 292
195 198 207 219 234 238 235 233 245 250 251 249 247 254 255 260 260 257 253 251 256 264 262 254 253 254 256 260 262 265 266 267 270 273 276 278 281 281 282 277 279 283 287 289
220 219 212 230 239 247 246 255 261 260 261 254 255 255 258 257 257 253 252 261 260 259 255 253 255 257 256 257 259 264 266 268 271 274 275 277 278 279 280 282 286 281 282 288
239 241 253 265 269 265 267 266 268 265 266 254 254 258 257 252 253 254 257 261 260 257 257 256 254 254 256 258 263 266 268 271 274 273 275 274 274 274 275 277 281 287 289 281
256 257 265 260 265 270 270 268 263 266 264 264 261 263 259 255 255 254 256 256 255 254 251 250 252 259 265 270 272 273 274 273 270 270 270 270 270 271 271 273 276 281 285 287
256 255 258 259 263 271 273 275 273 271 270 270 273 264 254 248 247 249 251 248 247 248 250 254 261 268 273 276 277 277 275 273 273 272 270 271 269 268 270 271 272 275 278 280
272 274 275 279 280 283 281 280 272 264 260 264 263 260 253 248 247 246 243 242 247 254 262 270 275 279 282 283 281 279 276 273 271 270 268 265 266 266 267 268 270 272 274 275
274 274 274 272 271 270 272 270 259 251 250 253 254 252 243 236 234 232 233 241 248 259 271 279 284 286 286 286 285 284 284 281 278 275 272 270 269 268 266 266 267 268 272 276
273 275 273 270 263 257 257 253 244 238 236 234 229 222 217 211 210 214 229 244 258 272 280 283 286 289 290 289 290 291 289 287 285 281 274 269 267 265 262 263 266 269 272 275
269 273 267 259 251 240 229 217 212 201 193 188 189 187 190 198 207 217 236 254 268 277 285 290 292 293 295 297 298 298 300 299 294 287 280 274 270 267 267 267 267 270 273 276
293 256 234 210 194 179 168 165 161 160 161 161 161 161 170 188 215 231 248 272 286 288 290 294 299 300 304 312 319 319 315 311 304 294 288 284 279 276 273 270 270 272 275 277
84 99 118 122 129 138 140 138 139 140 149 150 151 157 172 208 238 260 271 277 284 291 291 301 303 304 313 319 314 310 307 305 302 298 294 291 287 283 280 278 277 276 277 279
101 116 128 131 132 134 142 138 137 141 142 141 150 174 213 246 260 277 284 283 285 289 296 303 309 310 312 307 306 306 305 303 301 299 297 294 291 288 285 283 281 280 281 281
106 117 124 124 130 131 130 129 131 138 145 156 188 232 261 276 277 278 276 282 285 291 300 307 309 308 309 310 308 309 308 305 304 301 300 298 295 292 289 287 287 285 285 286
118 125 128 130 130 132 134 140 155 156 169 232 264 277 279 282 282 277 280 288 296 307 311 312 312 313 313 315 312 312 310 309 306 304 301 300 297 295 292 290 288 288 288 288
116 117 119 122 125 130 133 142 149 157 203 235 256 284 285 286 293 302 309 317 320 320 319 320 321 321 323 322 317 318 317 314 313 310 307 303 300 299 297 295 294 293 292 294